Temp
20 20 20 20 20 21 20 20 21 20 20 20 20 21 21 21 20 20 20 20 20 20 20 20 20 20 21 21 21 21 21 21 21 21 21 20 20 20 20 20 20 21
20 20 21 21 21 21 21 20 21 21 20 21 21 21 21 21 20 20 20 20 20 20 20 20 20 20 20 21 20 20 21 21 20 21 21 20 20 20 20 20 20 20
20 20 21 21 21 21 21 21 21 21 21 21 21 21 21 21 20 20 20 20 20 21 20 20 21 21 20 20 20 20 21 21 20 21 20 20 20 20 20 20 20 20
18 19 20 20 21 21 21 21 21 21 21 21 21 21 21 21 20 20 20 20 21 21 21 21 20 20 20 20 20 20 21 21 21 20 20 20 20 20 20 20 20 20
18 18 19 19 21 21 21 21 21 21 21 21 21 21 21 21 21 21 21 21 21 21 21 21 20 20 20 20 20 20 20 21 21 20 20 21 20 20 20 21 21 20
17 17 17 19 20 21 21 21 21 21 21 21 21 21 21 21 21 21 21 21 21 21 21 21 20 20 20 20 20 20 21 21 21 20 20 21 21 21 20 20 21 20
17 16 16 19 20 21 21 21 21 21 22 21 21 21 21 21 21 21 21 21 21 21 21 21 21 21 21 20 21 21 21 21 21 21 21 21 21 21 21 20 20 21
16 15 17 20 21 21 21 21 21 21 22 21 22 21 21 21 22 22 22 22 22 21 21 21 21 21 21 21 21 21 21 21 21 21 21 21 21 21 21 20 20 21
16 16 19 20 21 21 21 21 21 21 21 21 21 21 21 22 22 22 22 22 22 22 22 21 22 21 21 21 21 21 21 21 21 21 21 21 21 21 21 20 20 20
16 18 20 21 21 21 21 21 21 21 21 21 22 22 21 22 22 22 22 22 22 22 22 22 22 21 21 21 21 21 21 21 21 21 21 21 21 21 21 21 20 20
18 20 21 21 21 21 21 21 21 22 22 22 22 22 22 21 22 22 22 22 22 22 22 22 22 22 21 21 21 21 21 21 21 21 21 21 21 21 21 21 20 21
20 20 21 21 21 21 21 21 21 21 21 22 22 22 22 22 22 22 22 22 22 22 22 22 22 22 22 21 21 21 21 21 21 21 21 21 21 21 21 21 21 21
21 21 21 21 21 21 21 21 21 21 21 22 22 22 22 22 22 22 22 22 22 22 22 22 22 22 22 22 21 21 21 21 21 21 21 21 21 21 21 21 20 20
20 20 21 21 21 21 21 21 21 21 21 22 22 22 22 22 22 22 21 22 22 22 22 22 22 22 22 22 22 21 21 21 21 21 21 21 21 21 21 20 20 20
20 20 20 20 21 21 21 21 21 21 22 22 22 22 22 22 22 22 21 21 22 22 22 22 22 22 22 22 21 21 21 21 21 21 21 21 21 20 20 20 20 20
20 20 20 21 21 21 21 21 21 21 22 22 22 22 21 21 22 22 22 22 22 22 21 21 21 21 21 21 21 21 21 21 21 21 21 21 20 20 20 20 19 19
20 20 21 21 21 21 21 21 21 21 21 21 21 21 21 21 21 21 22 21 22 22 21 21 21 21 20 20 20 21 21 21 21 21 21 20 20 20 20 19 19 19
20 20 21 21 21 21 21 21 21 21 20 21 21 21 21 21 21 21 21 21 21 21 21 21 21 20 20 20 20 20 20 20 20 20 20 20 19 19 19 19 19 19
20 20 20 20 20 21 21 21 21 21 21 21 21 20 21 21 21 21 21 21 21 21 21 21 20 20 20 20 20 20 20 20 20 19 19 19 19 19 19 19 19 18
20 20 20 20 20 21 21 21 21 21 21 21 20 20 21 21 20 20 21 21 21 21 21 21 21 20 20 20 20 20 19 19 20 19 19 19 19 19 19 19 18 18
21 20 20 20 20 21 21 21 21 21 21 21 21 21 21 21 20 20 21 21 21 21 21 21 21 20 19 20 20 19 19 19 20 19 19 19 19 19 19 19 18 18
21 21 21 20 20 21 21 21 21 21 21 20 20 21 21 20 20 20 21 21 21 21 21 21 21 19 19 20 20 19 18 18 19 20 20 20 20 19 19 19 19 18
22 22 21 21 21 21 21 21 21 21 21 20 20 20 20 20 20 20 21 21 21 21 21 21 20 19 19 19 19 18 17 18 19 20 19 20 20 19 19 19 18 18
22 22 22 22 22 22 22 22 21 21 21 20 20 20 20 20 20 21 21 21 21 21 21 21 20 19 19 19 19 18 17 18 19 19 19 19 19 18 18 18 17 17
22 22 22 22 22 22 22 22 21 21 21 20 20 20 20 20 20 21 21 20 20 20 20 20 21 20 19 19 18 17 17 18 19 19 19 19 18 17 17 17 16 16
22 22 22 22 22 22 21 21 21 21 20 20 20 20 20 20 20 20 20 20 20 20 19 19 20 20 19 19 18 17 17 18 19 19 18 18 18 17 18 17 15 16
Height
741 744 747 747 749 751 753 756 759 762 765 770 773 775 778 782 785 788 790 792 795 797 799 800 801 804 807 809 811 812 814 815 816 817 818 818 819 819 820 820 821 821
737 739 742 744 746 749 751 754 757 760 763 768 771 773 777 780 783 784 786 789 792 795 796 797 799 802 805 807 809 810 812 813 814 815 816 817 817 817 818 819 819 820
734 736 739 741 744 747 748 752 755 758 762 766 769 772 776 778 779 781 783 787 790 792 793 795 797 800 802 804 806 808 809 811 812 813 814 815 815 816 816 817 817 818
733 736 738 741 743 745 746 749 752 756 760 764 767 770 772 774 775 778 781 785 788 789 791 793 795 797 800 802 804 806 807 808 810 811 812 813 813 814 814 814 815 815
733 735 738 742 743 743 743 745 749 753 757 761 765 767 769 770 773 776 779 783 785 787 789 791 793 795 797 799 801 803 805 806 807 809 810 811 811 812 812 812 813 813
732 736 739 743 742 740 740 742 746 751 755 759 761 764 766 768 771 774 777 780 782 784 787 789 791 792 794 796 799 801 802 804 805 807 808 808 809 810 811 811 812 812
733 739 742 742 739 737 737 738 743 749 753 756 759 761 763 766 769 772 775 778 780 782 785 787 789 790 792 794 796 798 800 801 803 804 805 806 807 808 809 810 811 811
735 741 742 739 735 734 733 736 742 747 751 754 756 759 761 764 766 770 773 775 778 780 783 785 787 789 790 792 794 795 797 799 800 801 802 803 805 807 808 809 809 810
734 739 738 734 730 729 730 735 741 746 749 752 755 757 759 762 764 768 771 773 776 778 781 783 785 787 788 790 792 793 795 796 797 798 799 801 803 805 806 807 808 808
732 732 730 728 726 726 729 735 741 745 748 751 753 755 757 760 763 766 769 771 774 776 778 780 782 784 786 788 790 791 793 794 795 795 796 798 800 802 804 805 806 806
726 725 724 724 724 725 730 736 740 744 747 749 751 753 755 758 761 764 767 769 771 773 776 778 779 781 783 785 788 790 791 792 792 793 793 795 797 799 801 803 804 805
720 721 721 722 723 726 731 736 739 743 745 747 749 751 754 757 759 762 765 767 769 771 773 775 776 778 781 783 785 787 789 790 791 791 792 793 795 797 799 801 802 803
716 718 719 721 723 725 730 735 738 741 743 745 748 750 752 755 758 761 763 765 767 769 771 772 774 776 778 780 782 784 786 788 789 789 790 791 792 794 797 799 800 802
712 714 718 721 722 724 729 733 736 739 741 744 746 749 751 754 756 759 761 763 766 767 769 770 772 774 776 777 779 781 783 785 786 787 788 789 790 792 794 797 798 800
709 711 716 721 721 722 727 731 734 737 740 742 745 747 750 752 754 757 759 761 764 765 767 769 771 772 773 775 777 778 780 782 783 785 786 787 788 790 793 795 797 799
706 709 715 719 719 721 725 729 732 736 738 741 744 746 749 751 753 755 757 759 761 763 765 767 768 770 771 772 774 776 777 779 781 782 784 786 787 789 791 794 795 797
703 707 712 716 718 720 724 728 731 734 737 740 742 745 747 750 752 753 755 757 759 761 763 764 766 767 768 770 772 774 775 777 778 781 782 784 786 788 790 792 794 796
701 706 711 715 718 720 724 727 730 733 736 738 741 743 746 748 750 752 753 755 757 759 760 762 763 764 766 768 770 772 774 775 777 779 781 783 785 786 788 789 791 794
701 705 711 715 718 720 723 726 729 732 734 737 739 742 744 746 749 750 751 754 756 757 758 760 761 762 763 766 768 770 772 774 776 778 780 781 783 784 786 787 789 792
702 707 712 716 719 720 722 725 727 729 732 735 738 741 743 745 747 748 750 751 753 755 756 758 759 760 761 763 766 768 771 773 774 776 778 779 781 782 783 785 787 789
704 708 713 716 717 719 720 722 725 727 731 734 737 738 740 743 744 746 747 749 751 752 754 756 757 758 759 761 763 766 769 771 773 774 775 777 778 780 781 783 785 787
703 707 710 713 714 715 717 720 723 726 730 732 734 736 738 740 742 743 745 746 748 750 752 754 755 757 757 759 761 764 767 770 771 771 773 774 776 778 780 782 783 785
701 704 706 709 711 713 715 718 721 724 727 729 731 733 736 738 739 741 742 744 745 747 749 751 753 754 755 757 759 762 765 768 768 769 771 772 774 776 778 780 782 783
698 700 703 706 708 711 713 716 719 722 725 727 729 731 733 735 736 738 740 741 743 745 747 749 751 752 753 755 756 759 763 765 766 767 769 771 773 776 778 779 780 781
696 698 701 704 707 709 712 714 717 720 723 725 727 729 731 733 734 736 738 739 741 743 745 747 748 750 751 753 754 757 760 762 764 765 767 769 772 774 776 778 778 779
695 697 700 702 705 708 711 714 716 718 720 723 725 726 728 730 732 733 736 738 740 742 743 745 746 748 749 751 753 755 758 760 761 762 764 767 770 772 774 776 777 777
Wind_Speed
31 31 28 24 22 22 22 21 20 21 21 20 20 18 18 18 19 21 20 19 19 19 18 17 16 16 15 15 16 15 13 12 11 9 9 11 11 12 12 13 13 11
30 28 26 24 22 22 23 22 22 22 22 21 20 19 19 20 21 21 20 19 19 19 18 17 17 17 17 17 17 16 14 12 11 9 9 11 11 12 13 13 13 12
26 25 24 24 24 25 25 24 23 22 22 21 20 20 20 20 21 20 20 19 19 19 19 18 18 19 19 18 17 17 15 13 12 10 10 11 12 13 13 13 12 11
23 24 24 24 25 26 26 25 23 21 21 21 20 20 19 18 19 19 19 20 19 19 19 19 19 19 20 19 18 17 15 13 12 11 10 12 13 14 13 13 12 11
25 26 25 25 24 25 25 24 23 22 21 21 19 18 17 17 19 19 19 20 19 18 18 19 19 20 19 19 18 17 15 13 13 11 12 13 13 14 14 13 12 12
25 26 28 27 24 24 24 23 22 21 21 21 19 19 18 18 19 19 20 20 19 18 18 19 19 19 19 19 19 18 16 14 14 12 13 14 14 15 14 13 13 13
25 30 33 29 24 24 23 21 21 20 21 21 20 20 20 19 18 18 19 19 18 19 19 20 20 19 19 20 20 18 16 16 15 14 14 14 14 14 14 13 13 13
32 37 36 29 24 23 21 21 20 20 21 21 21 20 19 18 18 17 18 18 19 20 21 21 20 20 20 21 19 18 18 17 16 15 15 14 14 14 14 13 13 13
37 38 32 26 23 20 19 19 20 21 21 20 20 19 18 18 18 18 18 19 20 21 22 22 21 21 21 20 18 18 19 19 18 16 15 14 14 15 15 14 14 13
37 33 26 23 22 19 18 19 20 21 21 21 20 19 18 18 19 19 20 20 21 22 22 22 21 21 20 19 19 19 20 20 18 17 16 15 15 15 15 15 14 13
34 27 23 23 21 19 19 20 20 21 20 20 20 19 18 19 20 20 21 21 22 22 22 21 20 20 20 19 19 19 20 20 19 18 16 16 16 15 15 15 15 14
30 25 22 23 21 20 20 21 21 21 20 21 21 21 20 20 21 21 21 22 22 22 22 21 21 21 21 20 19 19 20 20 19 18 17 16 16 16 16 16 15 13
29 25 23 24 22 21 21 21 21 21 20 21 22 22 22 22 22 21 21 21 22 22 22 22 21 22 22 21 20 20 20 20 19 18 17 16 16 16 16 16 14 13
27 25 24 24 22 21 20 21 21 21 20 21 22 22 22 22 22 21 20 20 21 22 22 21 21 22 23 23 21 20 21 20 20 19 18 17 17 16 15 15 14 14
26 25 25 23 20 20 20 21 21 20 20 21 22 22 21 21 21 22 22 22 22 22 21 20 21 22 23 23 21 20 21 20 20 19 18 17 16 15 15 14 14 14
25 25 24 22 20 20 21 21 21 20 20 21 22 21 20 20 22 22 23 23 23 23 22 21 21 22 22 23 22 21 20 19 19 19 19 17 15 14 14 14 15 15
22 22 22 21 20 21 22 22 21 20 20 21 21 21 21 20 21 23 23 24 23 23 23 22 21 22 22 24 24 22 20 18 18 18 17 16 15 14 14 15 16 15
20 21 21 21 21 23 23 23 22 21 20 21 21 21 22 21 22 23 24 23 23 23 23 22 21 21 22 23 23 23 22 18 16 15 15 15 15 15 16 16 17 16
20 21 22 23 24 26 25 24 23 22 21 21 21 22 23 23 22 23 23 23 22 23 23 21 20 21 22 23 23 23 23 19 15 14 14 16 16 16 17 17 17 16
22 24 26 27 28 28 26 24 23 22 21 21 22 23 24 23 22 22 23 23 22 22 22 20 20 21 21 22 22 22 23 21 17 15 16 17 17 18 19 18 17 18
25 27 28 28 29 28 26 25 22 21 22 23 23 24 24 23 23 23 23 23 22 23 21 19 20 22 21 20 21 21 23 22 18 16 17 18 18 19 20 18 18 19
27 28 27 27 27 26 26 26 24 24 24 23 22 22 22 22 23 24 23 23 22 22 20 18 20 21 20 19 20 22 23 22 19 18 19 19 19 20 20 18 18 18
26 26 26 26 26 26 26 26 25 25 24 22 22 22 22 23 24 23 22 22 21 20 20 19 19 21 20 19 21 24 24 22 21 20 19 18 18 19 19 18 17 17
22 23 24 25 25 26 26 25 25 24 23 22 23 24 24 23 22 22 20 20 20 20 20 19 18 20 21 20 23 26 25 23 23 22 20 18 17 16 17 16 17 19
19 21 22 24 25 25 25 25 24 23 23 23 23 23 23 21 20 20 19 18 19 20 20 20 18 18 20 21 25 28 28 25 24 23 21 19 17 16 16 15 16 21
19 20 21 23 23 23 24 24 23 23 23 24 23 21 20 20 19 19 18 18 20 20 20 19 17 17 21 23 27 31 31 27 23 22 21 20 18 18 17 15 16 21
Wind_Direction
201 200 197 188 179 176 173 171 172 169 170 175 176 176 177 181 183 184 186 187 189 192 192 189 189 193 199 205 209 213 214 215 215 222 237 239 237 236 234 233 232 235
198 196 195 190 183 178 174 173 173 169 169 175 177 177 178 182 183 182 183 184 188 190 188 186 188 194 201 205 208 211 212 212 210 215 227 230 228 227 227 227 228 233
198 193 190 189 187 182 176 175 174 169 169 174 177 178 178 179 178 178 180 183 188 188 186 186 190 197 204 206 208 210 210 207 207 212 219 222 223 222 223 223 223 225
199 194 191 191 187 181 176 175 174 170 170 175 178 178 175 173 173 175 179 185 187 185 185 189 193 199 205 206 208 210 208 205 205 208 215 219 221 222 223 223 221 221
199 196 197 198 188 176 172 171 173 174 176 178 178 176 172 170 172 176 181 186 186 183 185 193 197 201 205 205 206 207 204 203 204 205 212 217 219 223 226 226 226 225
200 201 203 201 186 172 167 165 169 175 177 178 177 174 173 173 175 178 182 184 183 183 188 195 199 201 203 202 203 204 200 202 204 202 208 215 216 222 227 229 231 230
199 208 208 201 182 169 164 160 167 175 176 177 176 175 175 174 175 178 181 183 183 187 192 198 200 200 200 200 201 202 200 202 204 202 205 211 214 219 224 227 232 233
197 206 206 193 175 166 161 160 170 178 179 178 176 176 175 173 175 178 182 185 187 192 198 201 202 199 199 200 200 199 199 201 203 202 203 207 212 218 219 222 230 233
196 202 198 182 167 161 160 165 177 182 182 181 178 176 175 174 176 179 184 188 191 196 200 202 202 201 200 200 197 198 200 200 201 200 200 203 210 215 215 217 221 226
197 197 188 174 163 158 164 175 183 185 184 183 179 176 176 178 181 185 188 191 194 198 200 201 202 201 201 200 198 200 202 201 201 201 199 202 208 213 215 215 216 222
195 190 179 172 163 158 169 183 186 186 185 183 181 180 181 183 186 188 191 193 196 198 198 199 199 199 200 200 200 203 206 205 205 203 202 202 207 212 214 214 216 222
189 186 178 174 167 163 174 186 187 186 185 184 184 185 186 189 190 191 194 197 197 197 198 198 198 200 201 201 200 204 208 209 207 207 205 203 206 211 213 215 219 222
182 182 181 177 172 170 177 189 190 188 187 186 188 191 191 192 193 193 197 200 200 200 200 200 200 201 201 199 199 202 207 209 208 208 206 202 205 210 212 216 219 219
174 174 180 181 177 174 180 190 191 191 192 192 192 195 196 195 194 196 199 201 203 202 201 201 200 200 198 197 198 201 205 208 208 209 205 201 204 207 209 215 217 216
169 168 178 185 179 174 185 194 193 192 194 195 196 198 200 199 198 199 200 200 202 202 200 199 200 200 197 195 197 200 203 206 208 209 205 201 201 202 206 213 213 212
166 167 178 186 180 177 189 196 194 192 193 196 199 198 201 203 201 202 202 200 201 201 198 197 198 200 198 195 196 199 201 204 206 207 205 202 198 197 203 210 209 207
163 169 181 186 182 183 191 195 194 194 194 197 198 197 200 204 203 205 204 200 201 200 197 196 196 199 202 199 198 200 200 200 202 203 202 199 196 197 204 208 205 200
165 173 183 187 187 188 191 194 194 194 195 195 195 197 201 203 204 207 205 200 202 201 198 196 195 199 206 207 205 205 202 197 196 196 195 194 195 201 205 202 198 194
168 175 184 188 190 190 189 191 192 192 194 195 194 198 202 202 204 208 205 200 201 203 199 196 197 202 208 208 206 207 205 199 192 189 193 195 197 203 201 192 190 188
173 179 186 187 189 189 187 187 188 187 190 193 195 198 201 202 204 208 205 200 200 203 200 198 201 206 208 205 204 207 206 200 190 186 194 198 197 199 195 185 185 188
179 181 185 185 186 187 185 186 184 184 188 193 194 196 198 200 203 205 204 200 199 201 200 199 203 209 210 205 203 206 203 197 191 189 193 194 193 193 190 187 190 191
183 182 183 184 185 185 185 186 186 187 190 191 191 193 195 198 201 203 201 198 197 198 198 197 204 212 212 205 202 203 199 194 191 191 190 189 190 190 190 191 192 189
182 183 184 185 185 186 187 188 188 189 190 190 189 190 193 196 199 200 198 195 194 197 197 197 205 214 213 204 200 200 196 192 191 190 189 188 186 187 191 194 193 187
179 181 183 186 188 190 190 189 188 187 189 190 189 189 193 196 196 194 193 194 196 198 197 196 205 217 215 205 200 199 194 190 188 185 185 184 181 184 190 192 192 188
180 181 182 187 191 192 192 190 188 187 189 189 188 189 192 192 191 191 192 195 198 198 197 195 201 216 217 206 199 197 191 185 182 181 180 181 180 183 187 188 190 189
181 182 184 188 192 192 191 189 187 186 186 185 185 189 190 187 187 191 193 197 198 197 198 196 198 212 217 206 197 194 186 179 180 181 180 181 181 180 182 184 187 191